FENGYUN 1C DEB, 32088

Orbit data source: Space-Track

FENGYUN 1C DEB, 32088 is space debris in SSO originally from a launch on Mon, 10 May 1999 UTC launched from the Taiyaun Space Center, China (TSC). Fengyun 1C debris stems from the Chinese weather satellite Fengyun-1C, which was intentionally destroyed by a Chinese anti-satellite missile in 2007. This event dramatically increased the amount of space debris, with thousands of trackable fragments posing hazards to satellites and human spaceflight. The Fengyun 1C debris cloud has become a focal point in discussions about space sustainability and the need for international regulations to prevent the creation of new debris.

Loading next visibility...
Identifier
32088, 1999-025CQE
Orbit
SSO
Country
Flag of CNCN / PRC
Related business
Manufacturer
Unknown
Mission
Spacecraft
Bus & Motor
Unknown
Mass
Unknown
Launch date (UTC)
1999-05-10 (27 years ago)
Launch vehicle
Unknown
Launch site
Taiyaun Space Center, China (TSC)
Object type
Payload
Rocket body
Debris
Shape & HBR
Unknown shape, 0.1 m
Radar Cross Section
Small (<0.1 m²)

Expand to show TLE details & history
Last TLE update: 1 day ago

TLE from 1 day ago
0 FENGYUN 1C DEB
1 32088U 99025CQE 26121.52702108  .00003192  00000-0  41585-2 0  9993
2 32088 102.4080  19.6443 0463719  56.7096 307.7551 13.25632160616963
Epoch: 2026-05-01T12:38Z
TLE epoch observation values (Epoch: 2026-05-01T12:38:54.621Z)
Latitude
-0.00003°
Longitude
-29.54128°
Altitude
962.352 km
Speed
7.469 km/s
True Right ascension
01h 18m 34s
True Declination
0° 00' 00"
Sunlit
Object was in daylight at epoch
Visualization orbit readout
Latitude
Unknown
Longitude
Unknown
Altitude
Unknown
Speed
Unknown
Apparent Right ascension
Unknown
Apparent Declination
Unknown
Sunlit
N/A
Visualization observer readout
Local Sidereal Time
23:08:27
Azimuth
Unknown
Elevation
Unknown
Doppler factor
Unknown
Orbital elements
Apogee altitude
1,510.358 km
Perigee altitude
811.172 km
Semi-major axis
7,538.902 km
Eccentricity
0.04637
Inclination
102.408°
RAAN
19.6443°
Arg. of periapsis
56.7096°
True anomaly
303.40365°
Mean anomaly
307.7551°
Eccentric anomaly
305.59462°
Mean motion
3.31574 °/min
Orbital period
108.57 mins
BSTAR
0.0041585
Loading maneuver chart data...
Computing Atmospheric mass density...

Documentation

Showing up to 5 results
|